Location: Columbus
(35.2256°N, 82.1549°W)
Time: 00:59:48
(UTC-05:00)

Envisat - Pass Details

Date: 04 December 2021
Orbit: 764 x 766 km, 98.2° (Epoch: 25 January)

Event Time Altitude Azimuth Distance (km) Brightness Sun altitude
Rises 05:34:50 0° 10° (N) 3,237 6.2 -21.3°
Reaches altitude 10° 05:37:08 10° 8° (N) 2,306 5.4 -20.8°
Maximum altitude 05:42:13 74° 285° (WNW) 796 2.8 -19.8°
Drops below altitude 10° 05:47:15 10° 200° (SSW) 2,291 5.4 -18.8°
Sets 05:49:32 0° 199° (SSW) 3,213 6.2 -18.4°
